User: anonymous   Login
Location: Astronomy Club of Akron Observatory
(40.9700°N, 81.5606°W)
Time: 08:04:49
(UTC-05:00)
Language:

Hubble Space Telescope - Orbit

View from above orbital plane
View from above orbital plane
View from above satellite
View from above satellite

Ground track
Ground track

The orbit data is extracted from the following two-line orbital elements,

1 20580U 90037B   21343.23148221  .00000745  00000-0  33925-4 0  9992
2 20580  28.4714 348.4555 0002840 142.1225 304.9064 15.09870908537691
Epoch (UTC): 09 December 2021 05:33:20
Eccentricity: 0.0002840
inclination: 28.4714°
perigee height: 534 km
apogee height: 538 km
right ascension of ascending node: 348.4555°
argument of perigee: 142.1225°
revolutions per day: 15.09870908
mean anomaly at epoch: 304.9064°
orbit number at epoch: 53769

The dashed part of the orbit path shows where the satellite is in the earth's shadow,  

DLR